^^
Grace C. Lehan Memorial Weather Station Historical Data
Daily Summary for March 10, 2021 Units:  Metric    English   Both
Daily Weekly Monthly Yearly
  High: Low: Average:
Temperature: 1.4 °C -8.3 °C -2.9 °C
Dew Point: -5.6 °C -10.2 °C -7.9 °C
Humidity: 89% 48.2% 70%
Wind Speed: 15km/h 0km/h 2.6km/h
Wind Gust: 27.4km/h - -
Wind- - NW
Pressure: 1026.6 hPa 1022.2 hPa -
Precipitation: 3.3 mm    
 
 
Tabular Data for March 10, 2021
Time Temperature Dew Point Pressure Wind Wind Speed Wind Gust Humidity Rainfall Rate (Hourly) solar
00:04 -4.3 °C -6.1 °C 1022.2 hPa Calm   6.4 km/h 87% 0 mm 0 W/m2
00:09 -4.3 °C -6.1 °C 1022.2 hPa NNW 0.2 km/h 3.2 km/h 87% 0 mm 0 W/m2
00:14 -4.3 °C -6.2 °C 1022.6 hPa NNW 0.6 km/h 4.8 km/h 87% 0 mm 0 W/m2
00:19 -4.3 °C -6.2 °C 1022.6 hPa NNW 1.6 km/h 11.3 km/h 87% 0 mm 0 W/m2
00:24 -4.3 °C -6.2 °C 1022.6 hPa NNW 1.9 km/h 11.3 km/h 87% 0 mm 0 W/m2
00:29 -4.3 °C -6.3 °C 1022.6 hPa NNW 2.7 km/h 11.3 km/h 86.4% 0 mm 0 W/m2
00:34 -4.3 °C -6.3 °C 1022.6 hPa North 2.9 km/h 11.3 km/h 86% 0 mm 0 W/m2
00:39 -4.3 °C -6.3 °C 1022.6 hPa NNW 2.4 km/h 9.7 km/h 86% 0 mm 0 W/m2
00:44 -4.2 °C -6.2 °C 1022.6 hPa NNW 1.9 km/h 9.7 km/h 86% 0 mm 0 W/m2
00:49 -4.2 °C -6.2 °C 1022.6 hPa NW 0.2 km/h 9.7 km/h 86% 0 mm 0 W/m2
00:54 -4.2 °C -6.3 °C 1022.6 hPa NW 1.3 km/h 9.7 km/h 85.2% 0 mm 0 W/m2
00:59 -4.2 °C -6.3 °C 1022.6 hPa NW 0.3 km/h 9.7 km/h 85% 0 mm 0 W/m2
01:04 -4.2 °C -6.3 °C 1022.6 hPa NW 2.4 km/h 9.7 km/h 85% 0 mm 0 W/m2
01:09 -4.2 °C -6.3 °C 1022.2 hPa NW 3.4 km/h 8 km/h 85% 0 mm 0 W/m2
01:14 -4.2 °C -6.3 °C 1022.2 hPa NW 2.6 km/h 8 km/h 85% 0 mm 0 W/m2
01:19 -4.2 °C -6.4 °C 1022.6 hPa NW 3.2 km/h 8 km/h 84.5% 0 mm 0 W/m2
01:24 -4.3 °C -6.6 °C 1022.6 hPa NW 2.7 km/h 8 km/h 84% 0 mm 0 W/m2
01:29 -4.3 °C -6.6 °C 1022.6 hPa NW 3.7 km/h 8 km/h 84% 0 mm 0 W/m2
01:34 -4.3 °C -6.6 °C 1022.2 hPa NW 5.8 km/h 17.7 km/h 84% 0 mm 0 W/m2
01:39 -4.2 °C -6.5 °C 1022.6 hPa NW 4.8 km/h 17.7 km/h 84% 0 mm 0 W/m2
01:44 -4.2 °C -6.5 °C 1022.6 hPa NW 5.3 km/h 17.7 km/h 84% 0 mm 0 W/m2
01:49 -4.2 °C -6.5 °C 1022.6 hPa NW 5.3 km/h 17.7 km/h 83.8% 0 mm 0 W/m2
01:54 -4.2 °C -6.7 °C 1022.6 hPa NW 5.1 km/h 17.7 km/h 83% 0 mm 0 W/m2
01:59 -4.2 °C -6.7 °C 1022.6 hPa WNW 4.7 km/h 17.7 km/h 83% 0 mm 0 W/m2
02:04 -4.2 °C -6.7 °C 1022.6 hPa WNW 5 km/h 17.7 km/h 83% 0 mm 0 W/m2
02:09 -4.3 °C -6.7 °C 1022.6 hPa WNW 4.2 km/h 14.5 km/h 83% 0 mm 0 W/m2
02:14 -4.3 °C -6.7 °C 1022.6 hPa NW 4.2 km/h 14.5 km/h 83% 0 mm 0 W/m2
02:19 -4.3 °C -6.8 °C 1022.6 hPa NW 3.1 km/h 14.5 km/h 83% 0 mm 0 W/m2
02:24 -4.3 °C -6.8 °C 1022.6 hPa NW 0.5 km/h 14.5 km/h 83% 0 mm 0 W/m2
02:29 -4.4 °C -6.8 °C 1022.6 hPa NW 1.9 km/h 14.5 km/h 83% 0 mm 0 W/m2
02:34 -4.4 °C -6.9 °C 1022.9 hPa NW 3.2 km/h 16.1 km/h 83% 0 mm 0 W/m2
02:39 -4.4 °C -6.9 °C 1022.9 hPa NW 1.6 km/h 16.1 km/h 83% 0 mm 0 W/m2
02:44 -4.4 °C -7 °C 1022.9 hPa NW 4.5 km/h 16.1 km/h 82.4% 0 mm 0 W/m2
02:49 -4.4 °C -6.9 °C 1022.9 hPa NW 5 km/h 16.1 km/h 82.6% 0 mm 0 W/m2
02:54 -4.4 °C -6.9 °C 1022.9 hPa NW 5.6 km/h 17.7 km/h 82.9% 0 mm 0 W/m2
02:59 -4.4 °C -6.9 °C 1022.9 hPa NW 5.8 km/h 17.7 km/h 83% 0 mm 0 W/m2
03:04 -4.4 °C -6.9 °C 1022.9 hPa NW 3.9 km/h 17.7 km/h 82.5% 0 mm 0 W/m2
03:09 -4.4 °C -7 °C 1022.9 hPa NW 1.9 km/h 11.3 km/h 82% 0 mm 0 W/m2
03:14 -4.4 °C -7.1 °C 1022.9 hPa NW 5.6 km/h 14.5 km/h 82% 0 mm 0 W/m2
03:19 -4.4 °C -7.1 °C 1022.9 hPa NW 4 km/h 14.5 km/h 82% 0 mm 0 W/m2
03:24 -4.4 °C -7.1 °C 1022.9 hPa NW 2.3 km/h 14.5 km/h 82% 0 mm 0 W/m2
03:29 -4.4 °C -7.1 °C 1022.9 hPa NW 4.7 km/h 14.5 km/h 82% 0 mm 0 W/m2
03:34 -4.5 °C -7.1 °C 1023.2 hPa NW 1.6 km/h 14.5 km/h 82% 0 mm 0 W/m2
03:39 -4.6 °C -7.1 °C 1023.2 hPa NW 0.5 km/h 8 km/h 82% 0 mm 0 W/m2
03:44 -4.6 °C -7.2 °C 1023.2 hPa Calm   8 km/h 82% 0 mm 0 W/m2
03:49 -4.7 °C -7.3 °C 1023.2 hPa NW 0.5 km/h 8 km/h 82% 0 mm 0 W/m2
03:54 -4.8 °C -7.4 °C 1023.6 hPa NW 0.5 km/h 8 km/h 82% 0 mm 0 W/m2
03:59 -4.9 °C -7.6 °C 1023.6 hPa NW 1.3 km/h 8 km/h 82% 0 mm 0 W/m2
04:00 -5 °C -7.6 °C 1023.2 hPa Calm   8 km/h 82% 0 mm 0 W/m2
04:09 -5.2 °C -7.7 °C 1023.6 hPa NW 2.6 km/h 6.4 km/h 82.5% 0 mm 0 W/m2
04:14 -5.2 °C -7.7 °C 1023.6 hPa NW 2.6 km/h 9.7 km/h 83% 0 mm 0 W/m2
04:19 -5.2 °C -7.7 °C 1023.6 hPa NW 0.6 km/h 9.7 km/h 83% 0 mm 0 W/m2
04:24 -5.3 °C -7.7 °C 1023.6 hPa NW 0.2 km/h 9.7 km/h 83% 0 mm 0 W/m2
04:29 -5.3 °C -7.8 °C 1023.9 hPa NW 0.3 km/h 9.7 km/h 83% 0 mm 0 W/m2
04:34 -5.4 °C -7.9 °C 1023.9 hPa Calm   9.7 km/h 83% 0 mm 0 W/m2
04:39 -5.6 °C -8 °C 1023.9 hPa Calm     83% 0 mm 0 W/m2
04:44 -5.7 °C -8.1 °C 1023.9 hPa Calm     83% 0 mm 0 W/m2
04:49 -5.7 °C -8.2 °C 1023.9 hPa Calm     83% 0 mm 0 W/m2
04:54 -5.8 °C -8.1 °C 1023.9 hPa Calm     83.8% 0 mm 0 W/m2
04:59 -5.9 °C -8.2 °C 1023.9 hPa Calm     83.8% 0 mm 0 W/m2
05:04 -6 °C -8.2 °C 1023.9 hPa Calm     84% 0 mm 0 W/m2
05:09 -6.1 °C -8.3 °C 1024.3 hPa Calm     84% 0 mm 0 W/m2
05:14 -6.2 °C -8.4 °C 1024.3 hPa Calm     84% 0 mm 0 W/m2
05:19 -6.2 °C -8.5 °C 1024.3 hPa Calm     84% 0 mm 0 W/m2
05:24 -6.3 °C -8.6 °C 1024.3 hPa Calm     84% 0 mm 0 W/m2
05:29 -6.3 °C -8.4 °C 1024.3 hPa Calm     85% 0 mm 0 W/m2
05:34 -6.4 °C -8.5 °C 1024.3 hPa Calm     85% 0 mm 0 W/m2
05:39 -6.4 °C -8.6 °C 1024.3 hPa Calm     85% 0 mm 0 W/m2
05:44 -6.5 °C -8.6 °C 1024.3 hPa Calm     85% 0 mm 0 W/m2
05:49 -6.6 °C -8.6 °C 1024.3 hPa Calm     85% 0 mm 0 W/m2
05:54 -6.6 °C -8.6 °C 1024.3 hPa Calm     85.5% 0 mm 0 W/m2
05:59 -6.6 °C -8.6 °C 1024.6 hPa Calm     86% 0 mm 0 W/m2
06:04 -6.7 °C -8.6 °C 1024.6 hPa Calm     86% 0 mm 0 W/m2
06:09 -6.7 °C -8.7 °C 1024.9 hPa Calm     86% 0 mm 0 W/m2
06:14 -6.8 °C -8.8 °C 1024.9 hPa Calm     85.2% 0 mm 0 W/m2
06:19 -6.9 °C -8.9 °C 1024.9 hPa Calm     85.4% 0 mm 0 W/m2
06:24 -6.9 °C -8.9 °C 1025.3 hPa Calm     86% 0 mm 0 W/m2
06:29 -7.1 °C -9.2 °C 1025.3 hPa Calm     85.1% 0 mm 0 W/m2
06:34 -7.3 °C -9.3 °C 1025.3 hPa Calm     85.2% 0 mm 0 W/m2
06:39 -7.4 °C -9.3 °C 1025.3 hPa Calm     86% 0 mm 0 W/m2
06:44 -7.5 °C -9.4 °C 1025.3 hPa Calm   1.6 km/h 85.9% 0 mm 0 W/m2
06:49 -7.7 °C -9.8 °C 1025.3 hPa Calm   1.6 km/h 85% 0 mm 0 W/m2
06:54 -7.9 °C -10 °C 1025.6 hPa Calm   1.6 km/h 85% 0 mm 0 W/m2
06:59 -8.1 °C -10.2 °C 1025.3 hPa Calm   1.6 km/h 85% 0 mm 0 W/m2
07:04 -8.2 °C -10.2 °C 1025.6 hPa Calm   1.6 km/h 85.5% 0 mm 0 W/m2
07:09 -8.3 °C -10.2 °C 1026 hPa Calm     86% 0 mm 7 W/m2
07:14 -8.2 °C -10.1 °C 1026 hPa Calm     86.4% 0 mm 9 W/m2
07:19 -8.2 °C -9.9 °C 1026 hPa Calm     87% 0 mm 7 W/m2
07:24 -8.1 °C -9.8 °C 1026.3 hPa Calm   1.6 km/h 87.2% 0 mm 9 W/m2
07:29 -8 °C -9.7 °C 1026.3 hPa NW 0.2 km/h 4.8 km/h 87.4% 0 mm 12 W/m2
07:34 -7.9 °C -9.5 °C 1026.3 hPa WNW 1 km/h 8 km/h 88% 0 mm 19 W/m2
07:39 -7.7 °C -9.3 °C 1026 hPa Calm   8 km/h 88% 0 mm 21 W/m2
07:44 -7.6 °C -9.1 °C 1026.3 hPa Calm   8 km/h 88.6% 0 mm 21 W/m2
07:49 -7.3 °C -8.8 °C 1026.3 hPa Calm   8 km/h 89% 0 mm 26 W/m2
07:54 -7.1 °C -8.6 °C 1026.6 hPa WNW 0.3 km/h 8 km/h 89% 0 mm 32 W/m2
07:59 -6.8 °C -8.3 °C 1026.6 hPa Calm   8 km/h 89% 0 mm 26 W/m2
08:00 -6.7 °C -8.2 °C 1026.3 hPa Calm   8 km/h 89% 0 mm 26 W/m2
08:09 -6.3 °C -8 °C 1026.6 hPa Calm   1.6 km/h 88% 0 mm 35 W/m2
08:14 -6.1 °C -7.8 °C 1026.6 hPa Calm   1.6 km/h 88% 0 mm 40 W/m2
08:19 -5.8 °C -7.6 °C 1026.6 hPa Calm   1.6 km/h 87.2% 0 mm 39 W/m2
08:24 -5.6 °C -7.4 °C 1026.6 hPa Calm   1.6 km/h 87% 0 mm 37 W/m2
08:29 -5.3 °C -7.2 °C 1026.6 hPa Calm   1.6 km/h 86.2% 0 mm 46 W/m2
08:34 -5.1 °C -7 °C 1026.6 hPa Calm   1.6 km/h 86% 0 mm 49 W/m2
08:39 -4.7 °C -6.9 °C 1026.6 hPa Calm     84.5% 0 mm 56 W/m2
08:44 -4.4 °C -6.8 °C 1026.6 hPa Calm     83.5% 0 mm 58 W/m2
08:49 -4.1 °C -6.5 °C 1026.6 hPa Calm     82.9% 0 mm 62 W/m2
08:54 -3.6 °C -6.3 °C 1026.6 hPa Calm     81.8% 0 mm 54 W/m2
08:59 -3.2 °C -6.2 °C 1026.6 hPa Calm     80.2% 0 mm 58 W/m2
09:04 -2.8 °C -6.1 °C 1026.6 hPa Calm     78.6% 0 mm 62 W/m2
09:09 -2.6 °C -6 °C 1026.3 hPa Calm     77% 0 mm 67 W/m2
09:14 -2.2 °C -5.8 °C 1026.3 hPa NW 1.1 km/h 6.4 km/h 76% 0 mm 63 W/m2
09:19 -1.8 °C -5.8 °C 1026.3 hPa NNW 0.3 km/h 6.4 km/h 74.4% 0 mm 62 W/m2
09:24 -1.6 °C -5.9 °C 1026.3 hPa NNW 0.5 km/h 6.4 km/h 72.4% 0 mm 69 W/m2
09:29 -1.4 °C -5.8 °C 1026.3 hPa NW 2.7 km/h 9.7 km/h 71.7% 0 mm 69 W/m2
09:34 -1.3 °C -6 °C 1026.6 hPa WNW 4.3 km/h 16.1 km/h 70% 0 mm 67 W/m2
09:39 -1.2 °C -6.1 °C 1026.6 hPa WNW 3.1 km/h 16.1 km/h 69.3% 0 mm 58 W/m2
09:44 -1.1 °C -6.1 °C 1026.6 hPa NW 8.4 km/h 17.7 km/h 68.6% 0 mm 69 W/m2
09:49 -1.1 °C -6.2 °C 1026.6 hPa WNW 8 km/h 20.9 km/h 68.2% 0 mm 72 W/m2
09:54 -1.1 °C -6.2 °C 1026.3 hPa WNW 7.6 km/h 20.9 km/h 68% 0 mm 70 W/m2
09:59 -1.1 °C -6.2 °C 1026.3 hPa NW 7.7 km/h 24.1 km/h 68% 0 mm 65 W/m2
10:04 -1.1 °C -6.4 °C 1026.3 hPa WNW 10 km/h 24.1 km/h 67.4% 0 mm 63 W/m2
10:09 -1.2 °C -6.3 °C 1026.3 hPa WNW 3.9 km/h 19.3 km/h 67.8% 0 mm 65 W/m2
10:14 -1.2 °C -6.3 °C 1026.3 hPa WNW 11.7 km/h 22.5 km/h 68% 0 mm 69 W/m2
10:19 -1.2 °C -6.4 °C 1026.3 hPa NW 4.3 km/h 22.5 km/h 67.3% 0 mm 83 W/m2
10:24 -1.1 °C -6.4 °C 1026.3 hPa NW 5.8 km/h 22.5 km/h 67% 0.25 mm 98 W/m2
10:29 -0.8 °C -6 °C 1026.6 hPa NNW 4.7 km/h 22.5 km/h 67.8% 0.25 mm 104 W/m2
10:34 -0.7 °C -6.1 °C 1026.6 hPa NW 5 km/h 22.5 km/h 66.6% 0.25 mm 65 W/m2
10:39 -0.7 °C -6.3 °C 1026.6 hPa NW 6.9 km/h 20.9 km/h 65.7% 0.25 mm 70 W/m2
10:44 -0.8 °C -6.5 °C 1026.6 hPa NW 4.2 km/h 20.9 km/h 65% 0.25 mm 70 W/m2
10:49 -0.8 °C -6.6 °C 1026.6 hPa NW 3.9 km/h 20.9 km/h 65% 0.25 mm 72 W/m2
10:54 -0.8 °C -6.5 °C 1026.3 hPa NW 2.7 km/h 20.9 km/h 65.2% 0.25 mm 132 W/m2
10:59 -0.4 °C -6.1 °C 1026.3 hPa WNW 6 km/h 20.9 km/h 66% 0.25 mm 130 W/m2
11:04 -0.1 °C -5.9 °C 1026.3 hPa NW 6.9 km/h 20.9 km/h 64.9% 0.25 mm 137 W/m2
11:09 0.2 °C -5.8 °C 1026.3 hPa NNW 8.7 km/h 17.7 km/h 63.7% 0.25 mm 142 W/m2
11:14 0.3 °C -6.2 °C 1026.3 hPa NW 7.6 km/h 20.9 km/h 61.5% 0.25 mm 149 W/m2
11:19 0.2 °C -6.4 °C 1026.3 hPa NW 13.2 km/h 20.9 km/h 61.3% 0.25 mm 109 W/m2
11:24 0 °C -6.4 °C 1026.3 hPa WNW 8.7 km/h 20.9 km/h 61.9% 0.25 mm 142 W/m2
11:29 0 °C -6.2 °C 1026.3 hPa WNW 8 km/h 20.9 km/h 63% 0.51 mm 144 W/m2
11:34 -0.1 °C -6.3 °C 1026.3 hPa NW 2.7 km/h 20.9 km/h 63% 0.51 mm 118 W/m2
11:39 0 °C -6.1 °C 1026.3 hPa NNW 0.6 km/h 11.3 km/h 63.8% 0.25 mm 144 W/m2
11:44 0.2 °C -5.9 °C 1026 hPa WNW 4.2 km/h 16.1 km/h 63.2% 0.51 mm 162 W/m2
11:49 0.4 °C -6 °C 1026 hPa WNW 2.1 km/h 16.1 km/h 61.8% 0.51 mm 179 W/m2
11:54 0.8 °C -5.6 °C 1026 hPa NNW 0.6 km/h 16.1 km/h 62.5% 0.76 mm 134 W/m2
11:59 1.1 °C -5.7 °C 1026 hPa NW 1.6 km/h 16.1 km/h 60.5% 0.76 mm 134 W/m2
12:00 1.2 °C -5.7 °C 1026 hPa WNW 3.2 km/h 16.1 km/h 60% 0.76 mm 125 W/m2
12:09 1.3 °C -5.9 °C 1026 hPa West 1.1 km/h 8 km/h 58.5% 1.02 mm 181 W/m2
12:14 1.4 °C -6 °C 1025.6 hPa WNW 1.9 km/h 16.1 km/h 57.9% 1.27 mm 149 W/m2
12:19 1.4 °C -6.1 °C 1025.6 hPa WNW 5.3 km/h 16.1 km/h 56.9% 1.27 mm 167 W/m2
12:24 1.4 °C -6.3 °C 1025.6 hPa WNW 5.1 km/h 16.1 km/h 56.5% 1.52 mm 186 W/m2
12:29 1.4 °C -6.6 °C 1025.6 hPa WNW 10.8 km/h 20.9 km/h 55.4% 1.52 mm 325 W/m2
12:34 1.3 °C -7.1 °C 1025.6 hPa WNW 12.9 km/h 24.1 km/h 53.9% 1.52 mm 267 W/m2
12:39 1 °C -6.9 °C 1025.3 hPa WNW 10 km/h 24.1 km/h 55.2% 1.27 mm 294 W/m2
12:44 0.9 °C -7.3 °C 1025.3 hPa WNW 12.6 km/h 24.1 km/h 54.1% 1.52 mm 294 W/m2
12:49 0.8 °C -7.4 °C 1024.9 hPa WNW 10.1 km/h 24.1 km/h 54.3% 1.52 mm 278 W/m2
12:54 0.7 °C -7.3 °C 1024.9 hPa West 8.4 km/h 24.1 km/h 54.7% 1.52 mm 234 W/m2
12:59 0.9 °C -7.1 °C 1024.9 hPa WNW 8.9 km/h 24.1 km/h 55% 1.52 mm 227 W/m2
13:04 1.1 °C -7.1 °C 1024.9 hPa WNW 7.1 km/h 24.1 km/h 54.3% 1.52 mm 294 W/m2
13:09 1.1 °C -7.3 °C 1024.6 hPa WNW 12.2 km/h 27.4 km/h 53.1% 1.27 mm 179 W/m2
13:14 1.1 °C -7.7 °C 1024.6 hPa WNW 9.5 km/h 27.4 km/h 52% 1.27 mm 202 W/m2
13:19 0.9 °C -7.7 °C 1024.6 hPa WNW 13 km/h 27.4 km/h 52.3% 1.27 mm 199 W/m2
13:24 0.9 °C -7.7 °C 1024.6 hPa WNW 10.9 km/h 27.4 km/h 52.8% 1.27 mm 315 W/m2
13:29 0.9 °C -7.6 °C 1024.6 hPa WNW 11.4 km/h 27.4 km/h 53% 1.52 mm 411 W/m2
13:34 0.9 °C -7.6 °C 1024.6 hPa NW 10.9 km/h 27.4 km/h 53% 1.52 mm 139 W/m2
13:39 0.9 °C -7.6 °C 1024.6 hPa NW 7.6 km/h 20.9 km/h 53.1% 0.76 mm 281 W/m2
13:44 0.9 °C -7.9 °C 1024.6 hPa WNW 7.7 km/h 20.9 km/h 51.3% 0.76 mm 281 W/m2
13:49 1 °C -7.6 °C 1024.6 hPa NW 8.2 km/h 20.9 km/h 52.6% 0.76 mm 207 W/m2
13:54 1.1 °C -7.9 °C 1024.6 hPa WNW 9 km/h 20.9 km/h 51.2% 0.76 mm 308 W/m2
13:59 1.1 °C -7.9 °C 1024.6 hPa NW 7.1 km/h 20.9 km/h 51.1% 1.02 mm 258 W/m2
14:04 1.1 °C -7.8 °C 1024.6 hPa NW 7.4 km/h 20.9 km/h 51.6% 1.02 mm 420 W/m2
14:09 1.2 °C -7.7 °C 1024.6 hPa NW 7.2 km/h 19.3 km/h 51.6% 0.76 mm 468 W/m2
14:14 1.2 °C -7.9 °C 1024.6 hPa NW 8.9 km/h 19.3 km/h 50.6% 0.76 mm 380 W/m2
14:19 1.3 °C -8 °C 1024.6 hPa NW 5.3 km/h 19.3 km/h 50% 0.76 mm 174 W/m2
14:24 1.3 °C -8 °C 1024.6 hPa WNW 7.9 km/h 19.3 km/h 50% 0.76 mm 209 W/m2
14:29 1.2 °C -8.1 °C 1024.6 hPa NW 7.1 km/h 19.3 km/h 50.2% 1.02 mm 127 W/m2
14:34 1.1 °C -8 °C 1024.9 hPa NNW 5 km/h 19.3 km/h 50.5% 1.02 mm 211 W/m2
14:39 1.1 °C -7.8 °C 1024.9 hPa NW 5.6 km/h 14.5 km/h 51.4% 0.51 mm 367 W/m2
14:44 1.2 °C -7.8 °C 1024.9 hPa WNW 6.6 km/h 20.9 km/h 51.1% 0.51 mm 367 W/m2
14:49 1.2 °C -8.2 °C 1024.6 hPa WNW 15 km/h 25.7 km/h 49.7% 0.51 mm 403 W/m2
14:54 1.2 °C -8.4 °C 1024.6 hPa WNW 11.9 km/h 25.7 km/h 48.8% 0.51 mm 454 W/m2
14:59 1.1 °C -8.6 °C 1024.9 hPa NW 10.6 km/h 25.7 km/h 48.2% 0.51 mm 454 W/m2
15:04 1 °C -8.4 °C 1024.9 hPa NW 6.6 km/h 25.7 km/h 49.3% 0.51 mm 408 W/m2
15:09 0.8 °C -8.5 °C 1024.9 hPa NW 5 km/h 14.5 km/h 49.6% 0.51 mm 46 W/m2
15:14 0.8 °C -8.4 °C 1024.9 hPa NW 3.5 km/h 14.5 km/h 50.2% 0.51 mm 44 W/m2
15:19 0.7 °C -8.5 °C 1024.6 hPa NNW 2.9 km/h 14.5 km/h 50.1% 0.51 mm 49 W/m2
15:24 0.6 °C -8.5 °C 1024.9 hPa NW 5.8 km/h 14.5 km/h 50.5% 0.51 mm 49 W/m2
15:29 0.6 °C -8.4 °C 1024.9 hPa WNW 4.3 km/h 14.5 km/h 50.9% 0.51 mm 42 W/m2
15:34 0.6 °C -8.3 °C 1024.9 hPa NW 3.1 km/h 14.5 km/h 51.3% 0.51 mm 40 W/m2
15:39 0.6 °C -8.4 °C 1024.9 hPa NW 1.4 km/h 9.7 km/h 51% 0.25 mm 42 W/m2
15:44 0.6 °C -8.4 °C 1024.9 hPa NW 0.3 km/h 9.7 km/h 50.8% 0.25 mm 40 W/m2
15:49 0.5 °C -8.4 °C 1024.9 hPa WNW 5.5 km/h 14.5 km/h 51.4% 0.25 mm 40 W/m2
15:54 0.5 °C -8.7 °C 1024.9 hPa WNW 8.5 km/h 20.9 km/h 50.1% 0.25 mm 44 W/m2
15:59 0.4 °C -9 °C 1024.9 hPa NW 5.3 km/h 20.9 km/h 49% 0.25 mm 44 W/m2
16:00 0.4 °C -9.1 °C 1024.9 hPa NW 1.6 km/h 20.9 km/h 49% 0.25 mm 42 W/m2
16:09 0.2 °C -9.3 °C 1024.9 hPa NW 6.1 km/h 19.3 km/h 48.7% 0.25 mm 35 W/m2
16:14 0.1 °C -9.3 °C 1024.9 hPa NW 4.5 km/h 19.3 km/h 49.3% 0.25 mm 30 W/m2
16:19 -0.1 °C -9.4 °C 1024.9 hPa NW 3.1 km/h 19.3 km/h 49% 0.25 mm 26 W/m2
16:24 -0.2 °C -9.6 °C 1024.9 hPa NW 4.7 km/h 19.3 km/h 49% 0.25 mm 25 W/m2
16:29 -0.2 °C -9.7 °C 1024.9 hPa NW 4.7 km/h 19.3 km/h 49% 0.25 mm 21 W/m2
16:34 -0.3 °C -9.7 °C 1024.9 hPa NNW 2.7 km/h 19.3 km/h 49.2% 0.25 mm 19 W/m2
16:39 -0.4 °C -9.6 °C 1024.9 hPa NNW 6.3 km/h 16.1 km/h 50% 0 mm 19 W/m2
16:44 -0.6 °C -9.7 °C 1024.6 hPa NNW 4.2 km/h 16.1 km/h 50% 0 mm 18 W/m2
16:49 -0.6 °C -9.8 °C 1024.6 hPa NW 2.9 km/h 16.1 km/h 50% 0 mm 16 W/m2
16:54 -0.7 °C -9.7 °C 1024.6 hPa NW 1.8 km/h 16.1 km/h 50.8% 0 mm 12 W/m2
16:59 -0.8 °C -9.7 °C 1024.6 hPa NNW 0.8 km/h 16.1 km/h 51% 0 mm 9 W/m2
17:04 -0.9 °C -9.8 °C 1024.6 hPa NW 0.5 km/h 16.1 km/h 51% 0 mm 7 W/m2
17:09 -1 °C -9.7 °C 1024.6 hPa Calm   4.8 km/h 51.9% 0 mm 5 W/m2
17:14 -1.1 °C -9.7 °C 1024.6 hPa NW 0.2 km/h 4.8 km/h 52% 0 mm 0 W/m2
17:19 -1.2 °C -9.8 °C 1024.6 hPa Calm   4.8 km/h 52.1% 0 mm 0 W/m2
17:24 -1.3 °C -9.5 °C 1024.6 hPa Calm   4.8 km/h 53.6% 0 mm 0 W/m2
17:29 -1.3 °C -9.5 °C 1024.6 hPa NW 0.3 km/h 4.8 km/h 53.8% 0 mm 0 W/m2
17:34 -1.4 °C -9.6 °C 1024.6 hPa NW 0.2 km/h 4.8 km/h 53.6% 0 mm 0 W/m2
17:39 -1.5 °C -9.7 °C 1024.6 hPa Calm   3.2 km/h 53.7% 0 mm 0 W/m2
17:44 -1.6 °C -9.6 °C 1024.9 hPa Calm   3.2 km/h 54.1% 0 mm 0 W/m2
17:49 -1.6 °C -9.6 °C 1024.9 hPa NW 0.2 km/h 3.2 km/h 54.5% 0 mm 0 W/m2
17:54 -1.7 °C -9.6 °C 1024.9 hPa Calm   3.2 km/h 55% 0 mm 0 W/m2
17:59 -1.7 °C -9.6 °C 1024.9 hPa NW 0.5 km/h 8 km/h 55% 0 mm 0 W/m2
18:04 -1.7 °C -9.6 °C 1024.9 hPa NW 0.3 km/h 8 km/h 55% 0 mm 0 W/m2
18:09 -1.7 °C -9.6 °C 1024.9 hPa Calm   3.2 km/h 55% 0 mm 0 W/m2
18:14 -1.8 °C -9.6 °C 1024.6 hPa Calm   3.2 km/h 55% 0 mm 0 W/m2
18:19 -1.8 °C -9.7 °C 1024.6 hPa Calm   3.2 km/h 55% 0 mm 0 W/m2
18:24 -1.8 °C -9.7 °C 1024.9 hPa Calm   3.2 km/h 55% 0 mm 0 W/m2
18:29 -1.9 °C -9.8 °C 1024.6 hPa Calm   3.2 km/h 55% 0 mm 0 W/m2
18:34 -2 °C -9.7 °C 1024.6 hPa Calm   3.2 km/h 55.6% 0 mm 0 W/m2
18:39 -2.1 °C -9.7 °C 1024.6 hPa Calm     56% 0 mm 0 W/m2
18:44 -2.2 °C -9.7 °C 1024.6 hPa Calm     56.4% 0 mm 0 W/m2
18:49 -2.2 °C -9.6 °C 1024.9 hPa Calm     57% 0 mm 0 W/m2
18:54 -2.3 °C -9.7 °C 1024.9 hPa Calm     57% 0 mm 0 W/m2
18:59 -2.4 °C -9.5 °C 1024.9 hPa Calm     58% 0 mm 0 W/m2
19:04 -2.4 °C -9.6 °C 1025.3 hPa Calm     58% 0 mm 0 W/m2
19:09 -2.5 °C -9.2 °C 1025.3 hPa Calm     60% 0 mm 0 W/m2
19:14 -2.6 °C -9.7 °C 1025.3 hPa Calm     58% 0 mm 0 W/m2
19:19 -2.6 °C -9.6 °C 1025.3 hPa Calm     58.9% 0 mm 0 W/m2
19:24 -2.7 °C -9.5 °C 1025.3 hPa Calm     59.5% 0 mm 0 W/m2
19:29 -2.8 °C -9.4 °C 1025.3 hPa Calm     60.3% 0 mm 0 W/m2
19:34 -2.9 °C -9.5 °C 1025.3 hPa Calm     60.3% 0 mm 0 W/m2
19:39 -3 °C -9.4 °C 1025.3 hPa Calm     61% 0 mm 0 W/m2
19:44 -3.1 °C -9.6 °C 1024.9 hPa Calm     61% 0 mm 0 W/m2
19:49 -3.2 °C -9.6 °C 1024.9 hPa Calm     61.6% 0 mm 0 W/m2
19:54 -3.3 °C -9.4 °C 1024.9 hPa Calm     62.4% 0 mm 0 W/m2
19:59 -3.3 °C -9.3 °C 1024.9 hPa Calm     63% 0 mm 0 W/m2
20:09 -3.4 °C -9.3 °C 1024.9 hPa Calm     63.7% 0 mm 0 W/m2
20:14 -3.5 °C -9.3 °C 1024.9 hPa Calm     64.1% 0 mm 0 W/m2
20:19 -3.6 °C -9.1 °C 1025.3 hPa Calm     65.4% 0 mm 0 W/m2
20:24 -3.7 °C -9.1 °C 1025.3 hPa Calm     66% 0 mm 0 W/m2
20:29 -3.7 °C -9.1 °C 1025.3 hPa Calm     66% 0 mm 0 W/m2
20:34 -3.8 °C -9.2 °C 1024.9 hPa Calm     66% 0 mm 0 W/m2
20:39 -3.8 °C -9.2 °C 1024.9 hPa Calm     66% 0 mm 0 W/m2
20:44 -3.9 °C -9.2 °C 1024.9 hPa Calm     66.3% 0 mm 0 W/m2
20:49 -3.9 °C -9.1 °C 1024.9 hPa Calm     67% 0 mm 0 W/m2
20:54 -3.9 °C -9.1 °C 1024.9 hPa Calm     67.2% 0 mm 0 W/m2
20:59 -3.9 °C -8.9 °C 1024.9 hPa Calm     68.2% 0 mm 0 W/m2
21:04 -3.9 °C -8.8 °C 1024.9 hPa Calm     69.1% 0 mm 0 W/m2
21:09 -3.9 °C -8.6 °C 1024.9 hPa Calm     70% 0 mm 0 W/m2
21:14 -3.9 °C -8.6 °C 1024.9 hPa Calm     70.3% 0 mm 0 W/m2
21:19 -3.9 °C -8.4 °C 1024.9 hPa Calm     71% 0 mm 0 W/m2
21:24 -3.9 °C -8.4 °C 1024.9 hPa Calm     71% 0 mm 0 W/m2
21:29 -3.9 °C -8.3 °C 1024.9 hPa Calm     71.8% 0 mm 0 W/m2
21:34 -3.9 °C -8.2 °C 1024.9 hPa Calm     72% 0 mm 0 W/m2
21:39 -3.9 °C -8.2 °C 1024.9 hPa Calm     72% 0 mm 0 W/m2
21:44 -3.9 °C -8.2 °C 1024.9 hPa Calm     72% 0 mm 0 W/m2
21:49 -3.8 °C -8.2 °C 1024.9 hPa Calm     72% 0 mm 0 W/m2
21:54 -3.8 °C -8.2 °C 1024.9 hPa Calm     71.7% 0 mm 0 W/m2
21:59 -3.8 °C -8.2 °C 1024.9 hPa Calm     71.8% 0 mm 0 W/m2
22:04 -3.8 °C -8.1 °C 1024.9 hPa Calm     72% 0 mm 0 W/m2
22:09 -3.9 °C -8.2 °C 1024.9 hPa Calm     72% 0 mm 0 W/m2
22:14 -3.9 °C -8.2 °C 1024.9 hPa Calm     72% 0 mm 0 W/m2
22:19 -3.9 °C -8.4 °C 1024.9 hPa Calm     71% 0 mm 0 W/m2
22:24 -3.9 °C -8.4 °C 1024.9 hPa Calm     71% 0 mm 0 W/m2
22:29 -3.9 °C -8.3 °C 1024.9 hPa Calm     71.3% 0 mm 0 W/m2
22:34 -3.8 °C -8.1 °C 1024.9 hPa Calm     72.2% 0 mm 0 W/m2
22:39 -3.8 °C -7.9 °C 1025.3 hPa Calm     73% 0 mm 0 W/m2
22:44 -3.8 °C -7.9 °C 1024.9 hPa Calm     73% 0 mm 0 W/m2
22:49 -3.8 °C -7.9 °C 1024.9 hPa Calm     73% 0 mm 0 W/m2
22:54 -3.9 °C -8 °C 1024.9 hPa Calm     73% 0 mm 0 W/m2
22:59 -3.9 °C -8 °C 1024.9 hPa Calm     73% 0 mm 0 W/m2
23:00 -3.9 °C -8 °C 1024.6 hPa Calm     73% 0 mm 0 W/m2
23:09 -3.9 °C -8.1 °C 1024.9 hPa Calm     72.8% 0 mm 0 W/m2
23:14 -3.9 °C -8.2 °C 1024.9 hPa Calm     72% 0 mm 0 W/m2
23:19 -3.8 °C -8.2 °C 1024.9 hPa Calm     72% 0 mm 0 W/m2
23:24 -3.8 °C -8.1 °C 1024.9 hPa Calm     72% 0 mm 0 W/m2
23:29 -3.8 °C -8.1 °C 1024.9 hPa Calm     72% 0 mm 0 W/m2
23:34 -3.8 °C -8.2 °C 1024.9 hPa Calm     71.5% 0 mm 0 W/m2
23:39 -3.8 °C -8.2 °C 1024.9 hPa Calm     71% 0 mm 0 W/m2
23:44 -3.7 °C -8.2 °C 1024.9 hPa Calm     71% 0 mm 0 W/m2
23:49 -3.7 °C -8.2 °C 1024.9 hPa Calm     71% 0 mm 0 W/m2
23:54 -3.7 °C -8.2 °C 1024.9 hPa Calm     71% 0 mm 0 W/m2
23:59 -3.7 °C -8.2 °C 1024.9 hPa Calm     71% 0 mm 0 W/m2
Hartford County Weather
Compliments of Weather Underground - 2 mb